Location: Black Swamp Observatory
(41.3920°N, 84.1250°W)
Time: 07:40:46
(UTC-04:00)

Amateur Radio Satellites - All Passes

Search period start: 23 October 2014 07:10
Search period end: 24 October 2014 07:10
Location: Black Swamp Observatory, 41.3920°N, 84.1250°W

Satellite Date Start Highest point End Downlink Frequencies (MHz)
Time Altitude Azimuth
AO-7 23 Oct 07:18:50 07:26:29 43° 299° (WNW) 07:34:08 29.400 - 29.500 MHz
STRAND 1 23 Oct 07:20:44 07:25:47 63° 73° (ENE) 07:30:52 ?
OPAL 23 Oct 07:21:05 07:23:50 14° 267° (W) 07:26:34 ?
Hamsat 23 Oct 07:29:31 07:33:44 84° 103° (ESE) 07:37:57 145.90 MHz
RS-15 23 Oct 07:49:45 08:00:48 62° 51° (NE) 08:12:16 29.354 - 29.394 USB, Beacon 29.352 USB
Saudisat 1A 23 Oct 08:27:20 08:31:19 36° 116° (ESE) 08:35:21 436.775 MHz
SO-67 23 Oct 08:28:22 08:31:45 49° 99° (E) 08:35:05 435.3500 MHz FM
JAS-2 23 Oct 08:45:55 08:52:13 29° 298° (WNW) 08:58:37 435.800 - 435.900 CW/SSB, 435.910 FM
STRAND 1 23 Oct 09:02:26 09:05:24 15° 269° (W) 09:08:23 ?
RS-15 23 Oct 10:02:39 10:12:43 41° 252° (WSW) 10:23:12 29.354 - 29.394 USB, Beacon 29.352 USB
HO-68 23 Oct 10:03:19 10:10:01 40° 98° (E) 10:16:40 435.675 MHz FM
Saudisat 1A 23 Oct 10:07:13 10:10:57 27° 313° (NW) 10:14:43 436.775 MHz
PANSAT 23 Oct 10:16:51 10:18:07 11° 176° (S) 10:19:24 not established
MaSat-1 23 Oct 10:17:33 10:20:06 40° 60° (ENE) 10:22:27 437.345 MHz
UKube-1 23 Oct 10:31:23 10:34:48 22° 95° (E) 10:38:12 145.840 MHz, 145.915 MHz
FUNcube-1 23 Oct 11:07:59 11:11:14 21° 93° (E) 11:14:26 145.950 - 145.970 MHz USB
Oscar 11 23 Oct 11:13:52 11:18:09 61° 101° (E) 11:22:24 145.825 FM, Beacon 2401.500 USB
HO-68 23 Oct 11:51:05 11:57:40 41° 296° (WNW) 12:04:15 435.675 MHz FM
PANSAT 23 Oct 11:56:56 11:57:28 10° 189° (S) 11:58:01 not established
ZACube-1 23 Oct 11:58:17 12:02:36 80° 102° (ESE) 12:06:47 437.345 MHz
UKube-1 23 Oct 12:07:06 12:11:02 33° 291° (WNW) 12:14:57 145.840 MHz, 145.915 MHz
PCSat 23 Oct 12:12:31 12:13:57 11° 35° (NE) 12:15:23 145.825 MHz
KITSAT 1 23 Oct 12:24:51 12:31:40 31° 107° (ESE) 12:38:30 435.175 FM
FUNcube-1 23 Oct 12:43:52 12:47:41 32° 290° (WNW) 12:51:24 145.950 - 145.970 MHz USB
Oscar 16 23 Oct 12:45:47 12:47:55 13° 59° (ENE) 12:50:04 437.025 USB, Beacon 2401.1428
Oscar 11 23 Oct 12:51:52 12:53:48 13° 297° (WNW) 12:55:45 145.825 FM, Beacon 2401.500 USB
Sapphire 23 Oct 13:30:47 13:35:43 33° 51° (NE) 13:40:36 437.095 MHz 1200 baud AX-25 AFSK
Oscar 19 23 Oct 13:36:31 13:41:09 35° 68° (ENE) 13:45:48 437.125 CW, 437.150 USB
SO-50 23 Oct 13:41:23 13:45:26 35° 115° (ESE) 13:49:37 436.795 FM
AO-27 23 Oct 13:51:07 13:54:58 22° 63° (ENE) 13:58:51 436.795 MHz FM
JAS-1B 23 Oct 13:52:26 13:58:03 43° 69° (ENE) 14:03:22 435.800 - 435.900 CW/SSB
PCSat 23 Oct 13:53:20 13:58:39 53° 56° (NE) 14:03:56 145.825 MHz
ISS 23 Oct 13:58:59 14:02:10 45° 139° (SE) 14:05:22 145.800 FM
Oscar 10/S400 23 Oct 14:10:42 14:28:23 34° 152° (SSE) 14:48:19 145.825 - 145.975 CW/USB, Beacon 145.810 USB
KITSAT 1 23 Oct 14:18:37 14:26:34 61° 306° (NW) 14:34:35 435.175 FM
Oscar 16 23 Oct 14:21:21 14:26:32 87° 255° (WSW) 14:31:43 437.025 USB, Beacon 2401.1428
AO-Echo 23 Oct 14:29:33 14:34:17 55° 72° (ENE) 14:39:13 ?
AO-7 23 Oct 14:37:48 14:41:42 14° 45° (NE) 14:45:36 29.400 - 29.500 MHz
Uribyol 2 23 Oct 14:38:06 14:43:12 59° 72° (ENE) 14:48:21 436.500 FM
ITAMSAT 1 23 Oct 14:43:42 14:48:49 62° 72° (ENE) 14:53:59 435.822 SSB
Gurwin Techsat 1B 23 Oct 14:54:34 14:59:30 41° 69° (ENE) 15:04:27 435.225 FM
TMSAT-1 23 Oct 15:06:53 15:11:46 39° 69° (ENE) 15:16:40 436.925 FM
UOSAT-12 23 Oct 15:13:49 15:17:45 28° 113° (ESE) 15:21:46 437.025 FM, 437.400 FM
Sapphire 23 Oct 15:14:11 15:19:09 37° 249° (WSW) 15:24:04 437.095 MHz 1200 baud AX-25 AFSK
Oscar 19 23 Oct 15:16:07 15:20:31 28° 265° (W) 15:24:55 437.125 CW, 437.150 USB
SO-50 23 Oct 15:22:05 15:26:01 29° 313° (NW) 15:30:05 436.795 FM
AO-27 23 Oct 15:29:04 15:34:06 50° 260° (W) 15:39:12 436.795 MHz FM
ISS 23 Oct 15:36:01 15:38:58 28° 336° (NNW) 15:41:55 145.800 FM
PCSat 23 Oct 15:37:36 15:41:40 22° 254° (WSW) 15:45:43 145.825 MHz
JAS-1B 23 Oct 15:44:06 15:48:56 25° 265° (W) 15:53:32 435.800 - 435.900 CW/SSB
AO-Echo 23 Oct 16:10:25 16:13:27 16° 270° (W) 16:16:33 ?
Uosat F 23 Oct 16:13:57 16:18:01 26° 65° (ENE) 16:22:07 435.120 FM
KITSAT 1 23 Oct 16:18:26 16:23:50 19° 330° (NNW) 16:29:15 435.175 FM
Uribyol 2 23 Oct 16:19:41 16:23:03 17° 268° (W) 16:26:26 436.500 FM
AO-7 23 Oct 16:24:44 16:32:49 61° 66° (ENE) 16:40:56 29.400 - 29.500 MHz
ITAMSAT 1 23 Oct 16:25:34 16:28:44 16° 269° (W) 16:31:55 435.822 SSB
Gurwin Techsat 1B 23 Oct 16:35:14 16:39:34 25° 266° (W) 16:43:56 435.225 FM
TMSAT-1 23 Oct 16:47:22 16:51:46 26° 265° (W) 16:56:12 436.925 FM
UOSAT-12 23 Oct 16:53:29 16:57:46 36° 311° (NW) 17:02:09 437.025 FM, 437.400 FM
Saudisat 1A 23 Oct 16:53:43 16:57:42 32° 48° (NE) 17:01:39 436.775 MHz
JAS-2 23 Oct 17:13:31 17:18:26 27° 61° (ENE) 17:23:52 435.800 - 435.900 CW/SSB, 435.910 FM
ISS 23 Oct 17:14:34 17:16:29 14° 356° (N) 17:18:25 145.800 FM
OPAL 23 Oct 17:50:37 17:53:45 17° 94° (E) 17:56:51 ?
Uosat F 23 Oct 17:51:56 17:56:36 38° 262° (W) 18:01:18 435.120 FM
AO-7 23 Oct 18:19:02 18:26:01 30° 264° (W) 18:33:04 29.400 - 29.500 MHz
KITSAT 1 23 Oct 18:21:30 18:23:19 11° 1° (N) 18:25:08 435.175 FM
Hamsat 23 Oct 18:22:39 18:26:47 59° 75° (ENE) 18:30:55 145.90 MHz
Saudisat 1A 23 Oct 18:33:21 18:37:11 29° 246° (WSW) 18:41:00 436.775 MHz
ISS 23 Oct 18:51:36 18:54:09 20° 17° (NNE) 18:56:41 145.800 FM
JAS-2 23 Oct 18:57:27 19:03:05 50° 262° (W) 19:09:29 435.800 - 435.900 CW/SSB, 435.910 FM
SO-67 23 Oct 19:01:57 19:04:13 17° 68° (ENE) 19:06:30 435.3500 MHz FM
OPAL 23 Oct 19:28:07 19:32:59 56° 290° (WNW) 19:37:48 ?
STRAND 1 23 Oct 19:32:06 19:36:00 21° 93° (E) 19:39:51 ?
Hamsat 23 Oct 20:01:42 20:03:06 11° 270° (W) 20:04:29 145.90 MHz
KITSAT 1 23 Oct 20:16:55 20:22:41 21° 32° (NNE) 20:28:25 435.175 FM
ISS 23 Oct 20:27:53 20:31:15 83° 37° (NE) 20:34:35 145.800 FM
HO-68 23 Oct 20:32:25 20:38:31 32° 61° (ENE) 20:44:38 435.675 MHz FM
SO-67 23 Oct 20:34:04 20:37:00 26° 264° (W) 20:39:57 435.3500 MHz FM
AO-40 23 Oct 20:59:35 23:14:24 20° 115° (ESE) 00:23:51 Beacon 2401.320
STRAND 1 23 Oct 21:10:28 21:15:24 46° 290° (WNW) 21:20:17 ?
UKube-1 23 Oct 21:27:15 21:30:28 21° 65° (ENE) 21:33:42 145.840 MHz, 145.915 MHz
FUNcube-1 23 Oct 22:04:29 22:07:48 20° 66° (ENE) 22:11:06 145.950 - 145.970 MHz USB
ISS 23 Oct 22:06:21 22:07:28 11° 231° (SW) 22:08:35 145.800 FM
Oscar 11 23 Oct 22:08:49 22:12:58 48° 73° (ENE) 22:17:08 145.825 FM, Beacon 2401.500 USB
KITSAT 1 23 Oct 22:11:37 22:19:42 69° 56° (NE) 22:27:43 435.175 FM
SO-50 23 Oct 22:12:27 22:16:56 36° 49° (NE) 22:21:26 436.795 FM
RS-15 23 Oct 22:14:42 22:24:15 36° 107° (ESE) 22:33:41 29.354 - 29.394 USB, Beacon 29.352 USB
HO-68 23 Oct 22:18:56 22:25:53 53° 259° (W) 22:32:54 435.675 MHz FM
ZACube-1 23 Oct 22:54:12 22:58:45 65° 74° (ENE) 23:03:16 437.345 MHz
UKube-1 23 Oct 23:02:23 23:06:24 37° 262° (W) 23:10:28 145.840 MHz, 145.915 MHz
FUNcube-1 23 Oct 23:39:32 23:43:53 42° 262° (W) 23:48:12 145.950 - 145.970 MHz USB
UOSAT-12 23 Oct 23:42:56 23:47:02 28° 46° (NE) 23:51:04 437.025 FM, 437.400 FM
Oscar 11 23 Oct 23:46:55 23:49:24 15° 268° (W) 23:51:54 145.825 FM, Beacon 2401.500 USB
SO-50 23 Oct 23:53:11 23:57:24 30° 246° (WSW) 00:01:39 436.795 FM
MaSat-1 23 Oct 23:55:13 23:57:55 17° 107° (ESE) 00:00:29 437.345 MHz
KITSAT 1 24 Oct 00:08:01 00:14:25 27° 255° (WSW) 00:20:49 435.175 FM
RS-15 24 Oct 00:24:59 00:35:52 66° 308° (NW) 00:46:47 29.354 - 29.394 USB, Beacon 29.352 USB
ZACube-1 24 Oct 00:33:39 00:35:32 12° 270° (W) 00:37:25 437.345 MHz
UOSAT-12 24 Oct 01:22:54 01:27:16 38° 244° (WSW) 01:31:33 437.025 FM, 437.400 FM
MaSat-1 24 Oct 01:29:27 01:33:22 40° 299° (WNW) 01:36:57 437.345 MHz
JAS-1B 24 Oct 01:37:16 01:39:35 12° 90° (E) 01:42:00 435.800 - 435.900 CW/SSB
Oscar 19 24 Oct 01:50:10 01:51:51 12° 89° (E) 01:53:32 437.125 CW, 437.150 USB
Oscar 16 24 Oct 02:33:22 02:37:58 32° 97° (E) 02:42:31 437.025 USB, Beacon 2401.1428
AO-Echo 24 Oct 02:37:23 02:41:11 20° 92° (E) 02:44:58 ?
RS-15 24 Oct 02:42:17 02:50:53 25° 338° (NNW) 02:59:36 29.354 - 29.394 USB, Beacon 29.352 USB
Uribyol 2 24 Oct 02:51:41 02:55:32 21° 93° (E) 02:59:21 436.500 FM
ITAMSAT 1 24 Oct 02:57:20 03:01:20 22° 93° (E) 03:05:18 435.822 SSB
Gurwin Techsat 1B 24 Oct 03:11:50 03:15:02 16° 91° (E) 03:18:13 435.225 FM
TMSAT-1 24 Oct 03:23:53 03:26:54 15° 90° (E) 03:29:54 436.925 FM
JAS-1B 24 Oct 03:24:10 03:30:49 76° 104° (ESE) 03:38:46 435.800 - 435.900 CW/SSB
Oscar 19 24 Oct 03:26:39 03:31:47 81° 285° (WNW) 03:36:54 437.125 CW, 437.150 USB
AO-27 24 Oct 03:41:52 03:47:02 58° 101° (E) 03:52:10 436.795 MHz FM
Oscar 16 24 Oct 04:12:48 04:17:14 30° 293° (WNW) 04:21:39 437.025 USB, Beacon 2401.1428
Sapphire 24 Oct 04:13:14 04:17:45 28° 108° (ESE) 04:22:19 437.095 MHz 1200 baud AX-25 AFSK
AO-Echo 24 Oct 04:15:04 04:20:14 54° 288° (WNW) 04:25:23 ?
AO-7 24 Oct 04:27:50 04:33:09 18° 90° (E) 04:38:26 29.400 - 29.500 MHz
Uribyol 2 24 Oct 04:30:14 04:35:15 49° 289° (WNW) 04:40:13 436.500 FM
PCSat 24 Oct 04:35:06 04:40:15 47° 113° (ESE) 04:45:27 145.825 MHz
ITAMSAT 1 24 Oct 04:36:03 04:41:02 46° 290° (WNW) 04:45:59 435.822 SSB
Gurwin Techsat 1B 24 Oct 04:50:11 04:55:27 64° 287° (WNW) 05:00:41 435.225 FM
RS-15 24 Oct 05:00:26 05:08:34 22° 14° (NNE) 05:16:50 29.354 - 29.394 USB, Beacon 29.352 USB
TMSAT-1 24 Oct 05:02:01 05:07:18 67° 287° (WNW) 05:12:32 436.925 FM
OPAL 24 Oct 05:04:55 05:09:27 33° 65° (ENE) 05:13:58 ?
Oscar 19 24 Oct 05:09:14 05:10:16 11° 303° (WNW) 05:11:18 437.125 CW, 437.150 USB
JAS-1B 24 Oct 05:16:22 05:20:59 21° 299° (WNW) 05:26:07 435.800 - 435.900 CW/SSB
AO-27 24 Oct 05:22:31 05:26:04 19° 298° (WNW) 05:29:38 436.795 MHz FM
Sapphire 24 Oct 05:55:51 06:00:58 42° 306° (NW) 06:06:08 437.095 MHz 1200 baud AX-25 AFSK
Uosat F 24 Oct 05:59:05 06:04:07 64° 102° (ESE) 06:09:07 435.120 FM
JAS-2 24 Oct 06:05:55 06:12:31 30° 92° (E) 06:19:06 435.800 - 435.900 CW/SSB, 435.910 FM
Hamsat 24 Oct 06:11:26 06:11:40 10° 89° (E) 06:11:55 145.90 MHz
AO-7 24 Oct 06:18:33 06:26:55 90° 290° (WNW) 06:35:17 29.400 - 29.500 MHz
PCSat 24 Oct 06:19:17 06:23:53 27° 312° (NW) 06:28:30 145.825 MHz
OPAL 24 Oct 06:43:44 06:48:17 31° 261° (W) 06:52:49 ?
STRAND 1 24 Oct 06:47:58 06:52:26 31° 67° (ENE) 06:56:57 ?
